Location: Arborea
(39.7744°N, 8.5819°E)
Time: 02:10:47
(UTC+00:00)

Cosmos 2228 - Pass Details

Date: 24 October 2021
Orbit: 587 x 618 km, 82.5° (Epoch: 29 November)

Event Time Altitude Azimuth Distance (km) Brightness Sun altitude
Rises 18:15:41 0° 181° (S) 2,868 6.5 -20.3°
Reaches altitude 10° 18:17:54 10° 179° (S) 1,971 5.6 -20.7°
Maximum altitude 18:22:15 73° 95° (E) 650 2.9 -21.5°
Drops below altitude 10° 18:26:39 10° 12° (NNE) 1,992 5.6 -22.4°
Sets 18:28:53 0° 10° (N) 2,902 6.4 -22.8°
